[[{"header":{"parameterUnit":"m.s-1","parameterCategory":1,"la1":30.2991,"la2":30.254,"lo1":-89.0895,"lo2":-89.0444,"dy":0.0017,"dx":0.0017,"nx":28,"ny":28,"refTime":"2023-04-01T21:00:00:Z","depth":0,"parameterNumber":2,"parameterNumberName":"U-component_of_WINDS"},"data":[0,0,0,0,0,0,0,0,0,0,0,0,0,0,0,0,0,0,0,0,0,0,0,0,0,0,0,0,0,0,0,0,0,0,0,0,0,0,0,0,0,0,0,0,0,0,0,0,0,0,0,0,0,0,0,0,0,0,-2.85,-2.8501,0,-2.8581,-2.8582,-2.8583,-2.8572,-2.8571,-2.857,-2.8569,-2.8651,-2.8654,-2.8657,0,0,0,0,0,0,0,0,0,0,0,0,0,-2.8334,-2.8337,-2.85,-2.8501,-2.8502,-2.8581,-2.8582,-2.8583,-2.8573,-2.8571,-2.8569,-2.8568,-2.8649,-2.8653,-2.8658,0,0,0,0,0,0,0,0,0,0,0,0,0,-2.8409,-2.8338,-2.85,-2.8506,-2.8508,-2.8581,-2.8582,-2.8583,-2.8573,-2.8571,-2.8569,-2.8567,-2.8648,-2.8653,-2.8658,-2.8729,0,0,-2.8674,-2.8676,0,0,0,0,0,0,0,0,-2.8405,-2.8415,-2.8504,-2.8506,-2.8508,-2.8565,-2.8553,-2.8632,-2.8573,-2.8548,-2.8568,-2.8566,-2.8623,-2.863,-2.865,-2.8733,-2.8737,-2.8674,-2.8677,-2.868,-2.8681,0,0,0,0,0,0,0,-2.84,-2.8412,-2.8532,-2.8506,-2.8508,-2.8504,-2.8513,-2.8568,-2.8596,-2.855,-2.855,-2.8559,-2.8624,-2.8645,-2.8652,-2.8738,-2.8674,-2.8679,-2.8682,-2.8684,-2.888,-2.8882,0,0,0,0,0,0,-2.8393,-2.8408,-2.8529,-2.8534,-2.845,-2.8509,-2.8518,-2.8548,-2.8595,-2.8601,-2.8561,-2.8559,-2.8637,-2.8646,-2.8655,-2.8738,-2.8679,-2.8684,-2.8687,-2.8877,-2.888,-2.8882,0,0,0,0,0,0,-2.839,-2.8404,-2.8526,-2.8471,-2.8486,-2.8514,-2.8547,-2.8551,-2.8572,-2.8604,-2.8608,-2.8578,-2.8636,-2.8647,-2.871,-2.8741,-2.8687,-2.8691,-2.8875,-2.8878,-2.8881,-2.8908,0,0,0,0,0,0,-2.8385,-2.8403,-2.8431,-2.8472,-2.8489,-2.8581,-2.855,-2.8554,-2.8581,-2.8579,-2.862,-2.8625,-2.8635,-2.8702,-2.8715,-2.8747,-2.8695,-2.8872,-2.8876,-2.888,-2.8904,-2.8911,-2.8918,0,0,0,0,0,-2.8379,-2.8436,-2.8433,-2.8447,-2.8525,-2.8583,-2.8593,-2.8604,-2.8584,-2.8611,-2.8631,-2.8624,-2.8736,-2.8709,-2.8723,-2.8757,-2.887,-2.8875,-2.888,-2.8901,-2.891,-2.8917,0,0,0,0,0,0,-2.8399,-2.8442,-2.8438,-2.851,-2.8543,-2.8581,-2.8617,-2.8613,-2.8652,-2.8648,-2.866,-2.8669,-2.8732,-2.8751,-2.872,-2.8827,-2.88,-2.8808,-2.8811,-2.882,-2.8827,-2.882,-2.87,0,0,0,0,0,-2.8412,-2.8456,-2.8491,-2.8551,-2.8567,-2.8589,-2.8615,-2.862,-2.8654,-2.8668,-2.8692,-2.8725,-2.8767,-2.8795,-2.8836,-2.8907,-2.8914,-2.8937,-2.8944,-2.895,-2.8956,-2.8991,-2.9001,-2.8898,-2.8898,-2.8898,0,0,-2.8439,-2.8467,-2.8495,-2.8555,-2.8581,-2.8625,-2.8601,-2.8649,-2.8681,-2.8675,-2.8735,-2.8754,-2.8791,-2.8857,-2.8888,-2.8875,-2.8985,-2.8956,-2.896,-2.8963,-2.8997,-2.9006,-2.9015,-2.8901,-2.8901,-2.89,0,0,-2.8509,-2.8537,-2.8588,-2.8614,-2.8653,-2.8667,-2.868,-2.8718,-2.873,-2.879,-2.8785,-2.8823,-2.8897,-2.8923,-2.8945,-2.9023,-2.9017,-2.9036,-2.9071,-2.9105,-2.9113,-2.912,-2.9145,-2.9154,-2.9043,-2.9043,-2.9043,0,-2.8537,-2.8604,-2.8615,-2.8663,-2.8688,-2.8685,-2.8735,-2.876,-2.8811,-2.8828,-2.8814,-2.8903,-2.8929,-2.8999,-2.9017,-2.9037,-2.9049,-2.9031,-2.9111,-2.9118,-2.9125,-2.9149,-2.9158,-2.9044,-2.9044,-2.9044,-2.9044,0,-2.8635,-2.8681,-2.8718,-2.8766,-2.8796,-2.8845,-2.8862,-2.8891,-2.8893,-2.8908,-2.8967,-2.8997,-2.9042,-2.906,-2.9063,-2.913,-2.912,-2.9109,-2.9082,-2.9137,-2.9159,-2.9168,-2.9047,-2.9046,-2.9046,-2.9045,0,0,-2.8721,-2.8773,-2.8786,-2.8806,-2.8848,-2.8883,-2.8931,-2.8975,-2.8998,-2.9033,-2.9072,-2.9133,-2.9121,-2.9147,-2.9153,-2.9183,-2.9239,-2.9167,-2.9168,-2.9177,-2.931,-2.9317,-2.9327,-2.9235,-2.9237,-2.9239,-2.9306,0,-2.8793,-2.8878,-2.8888,-2.8964,-2.9004,-2.9,-2.9042,-2.9071,-2.9086,-2.9122,-2.9138,-2.9179,-2.9163,-2.9178,-2.9208,-2.9226,-2.9265,-2.9221,-2.9269,-2.9271,-2.9258,-2.934,-2.9348,-2.941,-2.9315,-2.9317,-2.9318,0,-2.889,-2.8925,-2.9004,-2.9038,-2.9055,-2.9093,-2.9132,-2.9167,-2.9199,-2.9208,-2.9235,-2.9236,-2.9284,-2.9256,-2.932,-2.929,-2.931,-2.9322,-2.9324,-2.9328,-2.9296,-2.9342,-2.943,-2.9438,-2.9332,-2.9331,-2.933,0,-2.894,-2.9009,-2.9064,-2.9082,-2.9123,-2.9149,-2.9167,-2.9197,-2.9222,-2.9256,-2.9272,-2.9312,-2.9333,-2.9363,-2.9374,-2.9353,-2.9436,-2.941,-2.9442,-2.9442,-2.9458,-2.9457,-2.9548,-2.9476,-2.9476,-2.9475,-2.9475,0,-2.9019,-2.9066,-2.9087,-2.9121,-2.9173,-2.9183,-2.9235,-2.9252,-2.9278,-2.9314,-2.9313,-2.9347,-2.936,-2.9395,-2.9404,-2.9454,-2.9464,-2.9471,-2.9472,-2.9469,-2.9468,-2.9481,-2.9476,-2.9478,-2.9477,-2.9477,-2.9476,0,-2.9084,-2.91,-2.9159,-2.9193,-2.9202,-2.9239,-2.9267,-2.9298,-2.9312,-2.9357,-2.9368,-2.9389,-2.943,-2.9444,-2.9494,-2.95,-2.9557,-2.9556,-2.9546,-2.9545,-2.9575,-2.9571,-2.9676,-2.9689,-2.9611,-2.9611,-2.9612,0,-2.9131,-2.9168,-2.9205,-2.9228,-2.9247,-2.9286,-2.9311,-2.9322,-2.9347,-2.9385,-2.9412,-2.9452,-2.9485,-2.955,-2.9569,-2.9606,-2.9604,-2.9638,-2.961,-2.9605,-2.9601,-2.9598,-2.96,-2.9643,-2.9644,-2.9645,-2.9645,0,-2.9214,-2.9219,-2.9255,-2.9293,-2.9322,-2.9353,-2.9383,-2.9402,-2.9417,-2.9445,-2.9487,-2.9512,-2.9562,-2.9601,-2.9638,-2.9656,-2.9652,-2.9654,-2.9663,-2.9659,-2.9651,-2.9653,-2.9557,-2.9651,-2.9651,-2.965,-2.965,-2.965,-2.927,-2.93,-2.933,-2.937,-2.9393,-2.942,-2.945,-2.9467,-2.9502,-2.9543,-2.9547,-2.9591,-2.9619,-2.9669,-2.9688,-2.9721,-2.9712,-2.9725,-2.9728,-2.9731,-2.9731,-2.9647,-2.9729,-2.9729,-2.9728,-2.9728,-2.9728,0,-2.9349,-2.9368,-2.9404,-2.9444,-2.9474,-2.9469,-2.9501,-2.9526,-2.9564,-2.9591,-2.9623,-2.9669,-2.9706,-2.9727,-2.9764,-2.9786,-2.9785,-2.9795,-2.9793,-2.9796,-2.974,-2.9727,-2.9795,-2.9795,-2.9795,-2.9795,-2.9795,-2.9795,-2.9394,-2.9445,-2.9453,-2.9515,-2.9533,-2.9575,-2.9593,-2.9617,-2.9639,-2.969,-2.9721,-2.9734,-2.9758,-2.9796,-2.9829,-2.9835,-2.9847,-2.9857,-2.9861,-2.9808,-2.9801,-2.9794,-2.9782,-2.9861,-2.9861,-2.9915,-2.9915,-2.9915]},{"header":{"parameterUnit":"m.s-1","parameterCategory":1,"la1":30.2991,"la2":30.254,"lo1":-89.0895,"lo2":-89.0444,"dy":0.0017,"dx":0.0017,"nx":28,"ny":28,"refTime":"2023-04-01T21:00:00:Z","depth":0,"parameterNumber":3,"parameterNumberName":"V-component_of_WINDS"},"data":[0,0,0,0,0,0,0,0,0,0,0,0,0,0,0,0,0,0,0,0,0,0,0,0,0,0,0,0,0,0,0,0,0,0,0,0,0,0,0,0,0,0,0,0,0,0,0,0,0,0,0,0,0,0,0,0,0,0,-1.9172,-1.9172,0,-1.9162,-1.9162,-1.9162,-1.9141,-1.9141,-1.914,-1.914,-1.913,-1.913,-1.913,0,0,0,0,0,0,0,0,0,0,0,0,0,-1.917,-1.917,-1.9172,-1.9172,-1.9171,-1.9162,-1.9162,-1.9162,-1.9141,-1.9141,-1.914,-1.9139,-1.913,-1.913,-1.913,0,0,0,0,0,0,0,0,0,0,0,0,0,-1.9167,-1.917,-1.9172,-1.916,-1.9159,-1.9163,-1.9162,-1.9162,-1.9141,-1.9141,-1.914,-1.9139,-1.913,-1.913,-1.913,-1.9145,0,0,-1.9131,-1.9131,0,0,0,0,0,0,0,0,-1.9167,-1.9167,-1.9162,-1.9161,-1.9159,-1.9152,-1.9158,-1.9156,-1.9141,-1.9148,-1.914,-1.9139,-1.9138,-1.9137,-1.9137,-1.9145,-1.9144,-1.9131,-1.9131,-1.9131,-1.9131,0,0,0,0,0,0,0,-1.9167,-1.9167,-1.9168,-1.9162,-1.916,-1.9155,-1.9153,-1.9158,-1.9147,-1.9147,-1.9146,-1.9145,-1.9137,-1.9137,-1.9137,-1.9144,-1.9131,-1.9131,-1.9131,-1.9132,-1.9161,-1.9162,0,0,0,0,0,0,-1.9169,-1.9167,-1.9168,-1.9168,-1.9162,-1.9155,-1.9154,-1.9155,-1.9147,-1.9145,-1.9145,-1.9144,-1.9137,-1.9137,-1.9136,-1.9152,-1.9131,-1.9132,-1.9132,-1.9161,-1.9162,-1.9162,0,0,0,0,0,0,-1.9169,-1.917,-1.9169,-1.9167,-1.9167,-1.9156,-1.9158,-1.9155,-1.9155,-1.9145,-1.9143,-1.9147,-1.9136,-1.9136,-1.9143,-1.9151,-1.9132,-1.9132,-1.916,-1.9161,-1.9162,-1.9183,0,0,0,0,0,0,-1.9169,-1.917,-1.9175,-1.9167,-1.9167,-1.9175,-1.9158,-1.9156,-1.9156,-1.9154,-1.9146,-1.9145,-1.9136,-1.9142,-1.9143,-1.9151,-1.9132,-1.9159,-1.916,-1.9162,-1.9182,-1.9185,-1.9188,0,0,0,0,0,-1.9169,-1.9182,-1.9176,-1.9176,-1.9174,-1.9176,-1.9176,-1.9165,-1.9156,-1.9162,-1.9155,-1.9145,-1.915,-1.9143,-1.9144,-1.9152,-1.9159,-1.916,-1.9162,-1.9181,-1.9184,-1.9188,0,0,0,0,0,0,-1.9191,-1.9181,-1.9174,-1.9184,-1.9181,-1.9172,-1.9179,-1.917,-1.9169,-1.9167,-1.9154,-1.9153,-1.9161,-1.9157,-1.915,-1.9165,-1.9153,-1.9154,-1.9167,-1.9171,-1.9174,-1.9174,-1.9132,0,0,0,0,0,-1.9198,-1.92,-1.9191,-1.9201,-1.92,-1.919,-1.919,-1.9183,-1.9179,-1.9178,-1.9172,-1.9168,-1.9169,-1.917,-1.917,-1.9182,-1.9179,-1.9187,-1.919,-1.9193,-1.9194,-1.9198,-1.9202,-1.9167,-1.9167,-1.9167,0,0,-1.921,-1.9205,-1.9207,-1.9205,-1.9202,-1.9205,-1.9189,-1.9193,-1.9195,-1.9178,-1.9184,-1.9179,-1.9174,-1.9183,-1.9187,-1.918,-1.9203,-1.9195,-1.9197,-1.9197,-1.92,-1.9204,-1.9207,-1.9168,-1.9168,-1.9168,0,0,-1.9234,-1.9231,-1.9238,-1.9235,-1.923,-1.9223,-1.9225,-1.9218,-1.9214,-1.9219,-1.9207,-1.9209,-1.9211,-1.9207,-1.9206,-1.9228,-1.9218,-1.9229,-1.9244,-1.9248,-1.9251,-1.9253,-1.926,-1.9263,-1.923,-1.923,-1.923,0,-1.925,-1.9254,-1.9243,-1.9248,-1.9247,-1.9232,-1.9239,-1.9237,-1.9232,-1.9232,-1.9225,-1.9226,-1.9222,-1.9229,-1.9234,-1.9234,-1.9235,-1.9229,-1.9251,-1.9254,-1.9256,-1.9262,-1.9265,-1.9231,-1.9231,-1.9231,-1.9231,0,-1.9274,-1.9277,-1.9283,-1.9279,-1.9279,-1.9285,-1.9274,-1.9275,-1.9268,-1.9261,-1.9266,-1.9261,-1.9259,-1.9261,-1.9253,-1.9267,-1.9262,-1.9254,-1.9241,-1.926,-1.9266,-1.9268,-1.9233,-1.9233,-1.9232,-1.9232,0,0,-1.9311,-1.93,-1.9303,-1.93,-1.9293,-1.9295,-1.93,-1.9298,-1.9299,-1.9297,-1.93,-1.9301,-1.9293,-1.9291,-1.9283,-1.9288,-1.9304,-1.9278,-1.9278,-1.9282,-1.9317,-1.9323,-1.9326,-1.9298,-1.9298,-1.9298,-1.9317,0,-1.9333,-1.934,-1.933,-1.934,-1.9342,-1.9328,-1.9332,-1.9328,-1.9322,-1.9322,-1.9316,-1.9317,-1.9306,-1.9305,-1.9308,-1.9301,-1.9311,-1.93,-1.93,-1.93,-1.93,-1.9329,-1.9335,-1.9353,-1.9319,-1.9319,-1.932,0,-1.9359,-1.9357,-1.9367,-1.9358,-1.9359,-1.9363,-1.936,-1.9361,-1.9356,-1.9351,-1.9349,-1.934,-1.9343,-1.9331,-1.9335,-1.9328,-1.9328,-1.9324,-1.9325,-1.9323,-1.931,-1.9327,-1.9358,-1.9361,-1.9323,-1.9323,-1.9323,0,-1.9384,-1.9384,-1.9389,-1.9388,-1.9379,-1.9381,-1.9378,-1.9372,-1.9371,-1.9369,-1.9368,-1.9366,-1.9365,-1.9363,-1.9353,-1.9346,-1.9358,-1.9346,-1.9354,-1.9354,-1.9356,-1.9356,-1.9386,-1.9358,-1.9358,-1.9357,-1.9357,0,-1.9408,-1.9415,-1.94,-1.9403,-1.941,-1.9398,-1.9404,-1.9399,-1.9394,-1.9396,-1.9384,-1.9385,-1.9372,-1.9373,-1.9365,-1.9369,-1.9369,-1.9364,-1.9362,-1.9365,-1.9365,-1.9364,-1.9362,-1.9358,-1.9358,-1.9358,-1.9358,0,-1.9437,-1.9428,-1.9432,-1.9423,-1.9421,-1.9426,-1.9418,-1.942,-1.9413,-1.9415,-1.9415,-1.9404,-1.9404,-1.9394,-1.9391,-1.9386,-1.9393,-1.9389,-1.9394,-1.9393,-1.9401,-1.94,-1.943,-1.9433,-1.9404,-1.9404,-1.9404,0,-1.9453,-1.9457,-1.9448,-1.9448,-1.9445,-1.9445,-1.9444,-1.9433,-1.9432,-1.9427,-1.9429,-1.9428,-1.9426,-1.9426,-1.9417,-1.9415,-1.941,-1.9421,-1.941,-1.9412,-1.9409,-1.9408,-1.9408,-1.9423,-1.9424,-1.9424,-1.9424,0,-1.9481,-1.9476,-1.9475,-1.9473,-1.9472,-1.9469,-1.9466,-1.9467,-1.9454,-1.9454,-1.9453,-1.9452,-1.9449,-1.9447,-1.9443,-1.9439,-1.9429,-1.9428,-1.9429,-1.9432,-1.9434,-1.9432,-1.94,-1.9427,-1.9427,-1.9427,-1.9426,-1.9426,-1.9503,-1.9506,-1.9499,-1.9499,-1.9495,-1.9492,-1.9493,-1.9486,-1.9485,-1.9482,-1.9475,-1.9475,-1.9469,-1.9463,-1.946,-1.9459,-1.9453,-1.9456,-1.9456,-1.9457,-1.9458,-1.9435,-1.9459,-1.9458,-1.9458,-1.9458,-1.9458,0,-1.953,-1.9525,-1.9524,-1.952,-1.9519,-1.951,-1.9506,-1.9505,-1.9505,-1.9501,-1.9499,-1.9497,-1.9496,-1.9487,-1.9484,-1.9485,-1.9481,-1.9485,-1.9484,-1.9483,-1.9464,-1.9462,-1.9488,-1.9488,-1.9488,-1.9488,-1.9488,-1.9488,-1.9543,-1.9547,-1.9541,-1.9543,-1.9538,-1.9538,-1.9536,-1.9533,-1.9529,-1.9527,-1.9526,-1.952,-1.9514,-1.951,-1.9508,-1.9505,-1.9504,-1.951,-1.9506,-1.9487,-1.9485,-1.9482,-1.948,-1.951,-1.951,-1.9525,-1.9525,-1.9525]}]]